Hourly Weather Roundup
Issued by NWS Central Illinois

Home | Current Version | Previous Version | Text Only | Print | Product List | Glossary On
Versions: 1 2 3 4 5 6 7 8 9 10 11 12 13 14 15 16 17 18 19 20 21 22 23 24 25 26 27 28 29 30 31 32 33 34 35 36 37 38 39 40 41 42 43 44 45 46 47 48 49 50
000
NZUS43 KILX 081810
HWRILX

AREA WEATHER ROUNDUP
NATIONAL WEATHER SERVICE, LINCOLN IL
1200 PM CST THU DEC 08 2016


CITY           SKY/WX    TMP DP  RH WIND       PRES   REMARKS
BLOOMINGTON    FLURRIES  21  13  71 W21G26    30.37F WCI   5
6HR MIN TEMP:  18; 6HR MAX TEMP:  22; 6HR PCP: TRACE;

CHAMPAIGN      CLOUDY    22  12  65 W22       30.39F WCI   6
6HR MIN TEMP:  20; 6HR MAX TEMP:  23; 6HR PCP: TRACE;

DANVILLE       FLURRIES  22  14  71 W17       30.33F WCI   8
6HR MIN TEMP:  20; 6HR MAX TEMP:  22;

DECATUR        CLOUDY    22  12  65 W16G24    30.42F WCI   8
6HR MIN TEMP:  19; 6HR MAX TEMP:  22; 6HR PCP: TRACE;

EFFINGHAM      PTSUNNY   26  17  67 W16       30.46S WCI  14
6HR MIN TEMP:  22; 6HR MAX TEMP:  26;

FLORA          MOSUNNY   29  16  58 W14G23    30.46F WCI  18
6HR MIN TEMP:  24; 6HR MAX TEMP:  29;

GALESBURG      FLURRIES  18  11  73 W21G29    30.43F WCI   2
6HR MIN TEMP:  16; 6HR MAX TEMP:  18;

JACKSONVILLE   CLOUDY    22  12  65 W16G23    30.47F WCI   9
6HR MIN TEMP:  17; 6HR MAX TEMP:  22;

LACON          CLOUDY    19  10  68 W18G25    30.40S WCI   4
6HR MIN TEMP:  17; 6HR MAX TEMP:  20;

LAWRENCEVILLE  PTSUNNY   28  16  60 W14       30.43F WCI  17
6HR MIN TEMP:  23; 6HR MAX TEMP:  29;

LITCHFIELD     MOSUNNY   24  14  67 W18       30.46F WCI  10
6HR MIN TEMP:  19; 6HR MAX TEMP:  24;

$$


CITY           SKY/WX    TMP DP  RH WIND       PRES   REMARKS
LINCOLN        CLOUDY    23  12  62 W10G23    30.43S WCI  13
6HR MIN TEMP:  19; 6HR MAX TEMP:  23;

MACOMB         CLOUDY    21  12  68 NW16      30.48S WCI   7
MATTOON        CLOUDY    22  12  65 NW18      30.41F WCI   7
6HR MIN TEMP:  19; 6HR MAX TEMP:  22; 6HR PCP: TRACE;

MT CARMEL AP   MOSUNNY   29  18  63 W13       30.43F WCI  19
6HR MIN TEMP:  23; 6HR MAX TEMP:  29;

OLNEY-NOBLE AP PTSUNNY   28  18  64 W13G18    30.45F WCI  18
PARIS          CLOUDY    22  15  74 W22       30.40F WCI   7
6HR MIN TEMP:  19; 6HR MAX TEMP:  22;

PEORIA         CLOUDY    20   9  62 W17G28    30.43F WCI   5
6HR MIN TEMP:  18; 6HR MAX TEMP:  20; 6HR PCP: TRACE;

PONTIAC        MIX PCPN  22  15  74 W24G30    30.37F WCI   5
6HR MIN TEMP:  19; 6HR MAX TEMP:  22;

RANTOUL        FLURRIES  24  16  72 W18G26    30.37F WCI  10
6HR MIN TEMP:  21; 6HR MAX TEMP:  24;

SPRINGFIELD    CLOUDY    24  14  65 W18       30.45F WCI  10
6HR MIN TEMP:  20; 6HR MAX TEMP:  24; 6HR PCP: TRACE;

TAYLORVILLE    CLOUDY    22  12  67 W17G24    30.45F WCI   7
6HR MIN TEMP:  19; 6HR MAX TEMP:  22;

$$

...REGIONAL REPORTS...


CITY           SKY/WX    TMP DP  RH WIND       PRES   REMARKS
CHICAGO O`HARE PTSUNNY   19  11  70 W18G29    30.27S WCI   4
KANKAKEE       FLURRIES  19  12  73 W18G25    30.34S WCI   4
MOLINE         FLURRIES  20  11  68 W15G24    30.42S WCI   6
MOUNT STERLING MOSUNNY   21  10  60 NW20      30.46F WCI   6
MOUNT VERNON   NOT AVBL
PITTSFIELD     SUNNY     24  11  58 W14G26    30.49F WCI  11
QUINCY         MOSUNNY   23  10  57 NW17      30.48F WCI   9
ROCKFORD       FLURRIES  19  12  74 W13G25    30.33S WCI   6
$$


CITY           SKY/WX    TMP DP  RH WIND       PRES   REMARKS
BURLINGTON     CLOUDY    19  10  68 NW13G22   30.47S WCI   6
CEDAR RAPIDS   FLURRIES  18  14  84 W22G30    30.41F WCI   1
DES MOINES     PTSUNNY   21   8  57 NW22G28   30.51F WCI   5
KIRKSVILLE     MOSUNNY   22   9  57 NW14      30.51F WCI   9
OTTUMWA        CLOUDY    19   7  59 NW13      30.49F WCI   6
ST LOUIS       MOSUNNY   29  11  47 W17G26    30.50F WCI  17
$$


CITY           SKY/WX    TMP DP  RH WIND       PRES   REMARKS
TERRE HAUTE    CLOUDY    23  13  65 W18G25    30.40F WCI   9
EVANSVILLE     SUNNY     33  15  47 NW8G21    30.44F WCI  26
INDIANAPOLIS   FLURRIES  23  13  65 W18       30.33F WCI   9
LAFAYETTE      FLURRIES  22  14  71 W23G30    30.32F WCI   6
MADISON        CLOUDY    21  13  71 W13G22    30.25S WCI   9
MILWAUKEE      FLURRIES  24  11  57 W18G31    30.20S WCI  10
$$






USA.gov is the U.S. government's official web portal to all federal, state and local government web resources and services.